Weather in Gusinoozersk

Russia / Republic of Buryatia     51°17′07″N   106°31′45″E
temp.,
°C
wind,
m/s
gust,
m/s
humid.,
%
clouds,
%
prec.,
mm/h
press.,
hPa
HPBL,
m
13 may, thu
thu1323:00+5nnw6126762 0.0 1012331
02:00+4nnw3569100 0.0 1012133
05:00+3wnw1177100 0.0 101215
08:00+5nnw5753100 0.0 1013672
11:00+6nnw6741100 0.0 10131173
14:00+8nnw893589 0.0 10121436
17:00+7nnw7103382 0.0 10131496
20:00+5nnw59410 0.0 1015481
14 may, fri
fri1423:00+2nw35540 0.0 101792
02:00+1wnw33550 0.0 101822
05:000w22665 0.0 101919
08:00+4nw48585 0.0 1019670
11:00+8nnw57415 0.0 1017972
14:00+10n45323 0.0 10151242
17:00+11n56290 0.0 10141191
20:00+8ne22410 0.0 101511
15 may, sat
sat1523:00+5nw00460 0.0 101610
02:00+4s11470 0.0 101610
05:00+3s22500 0.0 101611
08:00+5ssw23454 0.0 1017197
11:00+11nnw57360 0.0 1016759
14:00+11nnw810486 0.0 1017805
17:00+11nnw673953 0.0 1015783
20:00+9nne334647 0.0 101526
16 may, sun
sun1623:00+6w115455 0.0 101710
02:00+6wnw115723 0.0 101711
05:00+4w11615 0.0 101610
08:00+7ssw345671 0.0 1016174
11:00+10sw2552100 0.0 1013428
14:00+15nnw893889 0.0 1011944
17:00+11nnw71065100 0.0 1012506
20:00+10n3569100 0.0 1012228
17 may, mon
mon1723:00+7nw118066 0.0 101111
02:00+6nnw1186100 0.0 101011
05:00+6nw118750 0.0 100810
08:00+8nnw1177100 0.0 1008182
11:00+10n566897 0.3 1009486
14:00+13nnw5757100 0.3 1008749
17:00+14ne3449100 0.0 1005662
20:00+11ese116228 0.0 100411